User: anonymous   Login
Location: Caltech
(34.1382°N, 118.1253°W)
Time: 05:40:03
(UTC-07:00)
Language:

OAO 1 Rocket - Orbit

View from above orbital plane
View from above orbital plane
View from above satellite
View from above satellite

Ground track
Ground track

The orbit data is extracted from the following two-line orbital elements,

1 02144U 66031B   14298.09147197  .00000735  00000-0  22595-3 0  7538
2 02144 035.0411 150.2344 0007617 032.8711 327.2452 14.42199879548533
Epoch (UTC): 25 October 2014 02:11:43
Eccentricity: 0.0007617
inclination: 35.0411°
perigee height: 746 km
apogee height: 756 km
right ascension of ascending node: 150.2344°
argument of perigee: 32.8711°
revolutions per day: 14.42199879
mean anomaly at epoch: 327.2452°
orbit number at epoch: 54853

The dashed part of the orbit path shows where the satellite is in the earth's shadow,  

DLR